CT1OY Oeiras PT current weather conditions

sailwx.info

Wind from 357

Air temperature 30.0° C
Dewpoint 17.1° C

Last reported at 2014-Oct-21 12:43 UTC.
Time now 2014-Oct-21 13:45 UTC

Location: N 38°44' W 009°17'.
View on Google Maps.

See reports from other nearby stations

  
Tides and Currents Weather Stations Pressure Air Temp Water Temp Dewpoint Dewpoint Depression Visibility Wind Speed Wind Dir Waves Ship Positions
date/time (UTC)wind fromknots sea level pressurealtimeterstation pressurevisibilityair tempwater tempwave heightnotes
2014-Oct-21 12:43 357 30.0
2014-Oct-21 12:33 043 29.4
2014-Oct-21 12:13 074 1 28.9
2014-Oct-21 11:53 045 0 29.4
2014-Oct-21 11:43 062 28.9
2014-Oct-21 11:13 070 0 28.3
2014-Oct-21 11:03 077 28.3
2014-Oct-21 10:53 046 27.8
2014-Oct-21 10:43 044 0 27.2
2014-Oct-21 10:33 044 27.2
2014-Oct-21 10:23 071 0 26.1
2014-Oct-21 10:13 053 0 26.1
2014-Oct-21 10:03 086 25.6
2014-Oct-21 09:53 104 25.0
2014-Oct-21 09:33 038 24.4
2014-Oct-21 09:23 058 23.9
2014-Oct-21 09:03 081 23.3
2014-Oct-21 08:53 075 22.8
2014-Oct-21 08:33 063 22.2
2014-Oct-21 08:13 083 0 21.7
2014-Oct-21 08:03 081 21.1
2014-Oct-21 07:53 086 21.1
2014-Oct-21 07:43 038 20.6
2014-Oct-21 07:33 352 20.0
2014-Oct-21 07:23 330 2 19.4
2014-Oct-21 06:43 029 20.0
2014-Oct-21 06:33 027 20.0
2014-Oct-21 06:13 036 20.6
2014-Oct-21 06:03 071 20.6
2014-Oct-21 05:53 048 20.0
2014-Oct-21 05:23 001 20.6
2014-Oct-21 05:13 037 21.1
2014-Oct-21 05:03 034 21.1
2014-Oct-21 04:53 056 0 21.1
2014-Oct-21 04:43 072 21.1
2014-Oct-21 04:33 011 21.1
2014-Oct-21 04:23 086 0 21.1
2014-Oct-21 04:13 068 0 21.1
2014-Oct-21 03:43 020 0 21.1
2014-Oct-21 03:33 065 21.1
2014-Oct-21 03:23 068 0 21.1
2014-Oct-21 03:13 097 0 21.7
2014-Oct-21 03:03 077 21.7
2014-Oct-21 02:43 041 2 21.7
2014-Oct-21 02:33 064 21.7
2014-Oct-21 02:23 086 0 21.7
2014-Oct-21 02:13 068 0 21.7
2014-Oct-21 02:03 074 0 21.7
2014-Oct-21 01:33 022 1 21.7
2014-Oct-21 01:13 096 21.7
2014-Oct-21 01:03 065 0 21.7
2014-Oct-21 00:43 122 22.2
2014-Oct-21 00:23 105 22.8
2014-Oct-21 00:13 349 22.8
2014-Oct-21 00:03 055 0 22.8
2014-Oct-20 23:53 093 22.8
2014-Oct-20 23:43 031 22.8
2014-Oct-20 23:33 355 22.8
2014-Oct-20 23:23 349 22.8
2014-Oct-20 23:13 016 22.8
2014-Oct-20 22:53 359 22.2
2014-Oct-20 22:43 051 22.2
2014-Oct-20 22:33 026 22.8
2014-Oct-20 22:13 085 22.8
2014-Oct-20 21:53 082 23.3
2014-Oct-20 21:43 041 23.3
2014-Oct-20 21:33 008 23.3
2014-Oct-20 21:13 285 23.9
2014-Oct-20 21:03 345 23.3
2014-Oct-20 20:33 284 23.3
2014-Oct-20 20:23 335 23.3
2014-Oct-20 20:03 304 23.9
2014-Oct-20 19:53 290 23.9
2014-Oct-20 19:43 290 23.9
2014-Oct-20 19:23 291 24.4
2014-Oct-20 18:53 269 25.0
2014-Oct-20 18:33 257 25.6
2014-Oct-20 18:23 226 25.6
2014-Oct-20 18:03 240 26.1
2014-Oct-20 17:53 222 26.7
2014-Oct-20 17:43 212 1 26.7
2014-Oct-20 17:33 252 0 27.2
2014-Oct-20 17:23 030 27.2
2014-Oct-20 17:13 045 0 27.2
2014-Oct-20 17:03 068 1 27.8
2014-Oct-20 16:53 089 1 27.8
2014-Oct-20 16:43 053 1 28.3
2014-Oct-20 16:33 050 3 gusting 13 28.3
2014-Oct-20 16:23 057 3 28.3
2014-Oct-20 16:03 022 0 gusting 10 28.3
2014-Oct-20 15:53 058 1 28.3
2014-Oct-20 15:43 013 3 gusting 10 28.9
2014-Oct-20 15:33 035 1 28.9
2014-Oct-20 15:23 033 2 28.9
2014-Oct-20 15:13 074 0 28.3
2014-Oct-20 14:53 056 4 gusting 12 28.3
2014-Oct-20 14:43 045 2 28.3
2014-Oct-20 14:33 035 3 gusting 12 28.3
2014-Oct-20 14:23 050 4 28.3
2014-Oct-20 14:13 025 3 28.3
2014-Oct-20 14:03 347 0 28.3
2014-Oct-20 13:53 053 4 28.3
2014-Oct-20 13:43 114 0 27.8
2014-Oct-20 13:33 068 5 gusting 11 27.8
2014-Oct-20 13:23 083 0 27.8
2014-Oct-20 13:13 044 4 27.8
2014-Oct-20 13:03 070 4 27.2
2014-Oct-20 12:53 053 6 27.8
2014-Oct-20 12:43 332 6 27.2
2014-Oct-20 12:23 026 1 27.2
2014-Oct-20 12:03 030 5 26.7
2014-Oct-20 11:23 034 0 26.1
2014-Oct-20 11:13 037 25.6
2014-Oct-20 11:03 084 0 gusting 10 25.0
2014-Oct-20 10:33 075 1 24.4
2014-Oct-20 10:23 256 0 23.9
2014-Oct-20 09:53 077 4 23.3
2014-Oct-20 09:43 107 0 22.8
2014-Oct-20 09:13 321 1 gusting 10 22.2
2014-Oct-20 09:03 037 6 gusting 12 21.7
2014-Oct-20 08:53 108 1 gusting 11 21.7
2014-Oct-20 08:23 046 1 21.1
2014-Oct-20 08:03 061 3 20.0
2014-Oct-20 07:53 058 2 20.0
2014-Oct-20 07:33 075 0 20.0
2014-Oct-20 07:13 018 0 20.0
2014-Oct-20 06:43 038 1 20.0
2014-Oct-20 06:33 051 1 20.0
2014-Oct-20 06:23 030 1 20.0
2014-Oct-20 06:13 030 1 20.0
2014-Oct-20 06:03 048 20.0
2014-Oct-20 05:53 094 2 20.0
2014-Oct-20 05:43 083 1 20.0
2014-Oct-20 05:33 094 0 20.0
2014-Oct-20 05:23 054 1 20.0
2014-Oct-20 05:13 082 2 20.0
2014-Oct-20 05:03 049 1 20.0
2014-Oct-20 04:53 032 2 20.0
2014-Oct-20 04:23 053 1 20.6
2014-Oct-20 04:13 016 1 20.6
2014-Oct-20 04:03 027 0 20.6
2014-Oct-20 03:53 044 3 20.6
2014-Oct-20 03:43 066 2 20.6
2014-Oct-20 02:53 041 0 20.6
2014-Oct-20 02:43 266 1 20.6
2014-Oct-20 02:33 073 0 21.1
2014-Oct-20 02:23 352 0 21.1
2014-Oct-20 02:13 117 21.1
2014-Oct-20 01:53 011 0 21.7
2014-Oct-20 01:43 350 1 21.7
2014-Oct-20 01:33 044 1 21.7
2014-Oct-20 01:23 046 0 21.7
2014-Oct-20 01:13 098 0 21.7
2014-Oct-20 01:03 029 22.2
2014-Oct-20 00:53 118 22.2
2014-Oct-20 00:33 079 22.2
2014-Oct-20 00:23 034 3 22.2
2014-Oct-20 00:03 070 22.8
2014-Oct-19 23:53 064 3 22.8
2014-Oct-19 23:43 055 22.8
2014-Oct-19 23:33 069 0 22.8
2014-Oct-19 23:23 070 22.8
2014-Oct-19 23:13 088 22.8
2014-Oct-19 23:03 076 22.8
2014-Oct-19 22:53 058 2 22.8
2014-Oct-19 22:23 117 1 23.3
2014-Oct-19 22:13 048 23.3
2014-Oct-19 21:53 077 0 23.3
2014-Oct-19 21:43 011 23.3
2014-Oct-19 21:33 045 3 23.3
2014-Oct-19 21:23 046 23.3
2014-Oct-19 20:23 056 23.9
2014-Oct-19 20:13 068 23.9
2014-Oct-19 19:53 054 24.4
2014-Oct-19 19:03 048 25.0
2014-Oct-19 18:53 038 25.0
2014-Oct-19 18:33 018 0 25.6
2014-Oct-19 18:23 079 25.6
2014-Oct-19 18:13 011 25.6
2014-Oct-19 17:53 066 26.1
2014-Oct-19 17:43 067 26.1
2014-Oct-19 17:33 063 26.7
2014-Oct-19 17:23 088 26.7
2014-Oct-19 17:13 058 27.2
2014-Oct-19 16:53 075 0 28.3
2014-Oct-19 16:23 085 28.3
2014-Oct-19 16:13 040 0 28.9
2014-Oct-19 15:53 068 28.3
2014-Oct-19 15:43 062 0 27.8
2014-Oct-19 15:33 060 0 28.3
2014-Oct-19 15:23 047 28.9
2014-Oct-19 15:13 037 28.3
2014-Oct-19 15:03 051 0 28.3
2014-Oct-19 14:53 030 28.3
2014-Oct-19 14:23 034 28.9
2014-Oct-19 14:13 079 2 28.3
2014-Oct-19 14:03 074 0 28.3
2014-Oct-19 13:53 065 0 28.3
2014-Oct-19 13:43 098 1 28.3
2014-Oct-19 13:33 050 0 27.8
2014-Oct-19 13:23 038 27.8
2014-Oct-19 13:13 032 27.2
2014-Oct-19 13:03 107 0 27.2